Regional Weather Roundup
Issued by NWS

Home | Current Version | Previous Version | Text Only | Print | Product List | Glossary Off
Versions: 1 2 3 4 5 6 7 8 9 10 11 12 13 14 15 16 17 18 19 20 21 22 23 24 25 26 27 28 29 30 31 32 33 34 35 36 37 38 39 40 41 42 43 44 45 46 47 48 49 50

000
ASUS43 KDTX 192210
RWRMI
MICHIGAN HOURLY REGIONAL WEATHER ROUNDUP
NATIONAL WEATHER SERVICE DETROIT/PONTIAC MI
600 PM EDT THU APR 19 2018

NOTE: "FAIR" INDICATES FEW OR NO CLOUDS BELOW 12,000 FEET WITH NO
SIGNIFICANT WEATHER AND/OR OBSTRUCTION TO VISIBILITY.

MIZ047>049-052>055-059>063-066>070-074>076-081>083-192300-
SOUTHEAST LOWER MICHIGAN

CITY           SKY/WX    TMP DP  RH WIND       PRES   REMARKS
ADRIAN         FAIR      54  19  25 N14G23    30.20R
ALMA           FAIR      49  21  33 NW13G21   30.24R
ANN ARBOR      FAIR      54  19  25 NW18G26   30.18R
BAD AXE        FAIR      45  18  34 N13       30.21R
CARO           FAIR      44  24  45 NE6       30.20S
DETROIT CITY   FAIR      52  18  26 NW16G24   30.19R
DETROIT        FAIR      55  19  24 N13G26    30.17R
FLINT          FAIR      50  20  30 NW16G26   30.20R
GROSSE ILE     FAIR      53  18  24 NW15G24   30.17R
HILLSDALE      FAIR      54  18  24 N15G21    30.20R
HOWELL         FAIR      50  19  29 NW17G25   30.20R

CITY           SKY/WX    TMP DP  RH WIND       PRES   REMARKS
JACKSON        FAIR      53  10  18 NW14G25   30.21R
LAMBERTVILLE   FAIR      56  14  18 NW10G22   30.18R
LANSING        FAIR      52  18  26 NW20G28   30.24R
LAPEER         FAIR      48  20  32 N9G21     30.20R
MASON          FAIR      54  13  19 NW17G25   30.22R
MONROE         FAIR      53  18  25 NW16      30.17R
MT. CLEMENS    SUNNY     48  23  37 N15       30.19R
PONTIAC        FAIR      50  18  28 N13G28    30.17R
PORT HOPE        N/A     40  28  62 N6        30.20R
PORT HURON     FAIR      39  23  52 N12G17    30.21R WCI  32
TRI CITIES     FAIR      50  25  37 NW17      30.22R
MIDLAND        FAIR      48  24  39 NW12G22   30.21R
TROY           FAIR      52  16  23 NW17G26   30.19R
SAGINAW HB     FAIR      46  30  53 NE10      30.21R
$$
MIZ043>046-050>051-056>058-064>065-071>073-077>080-192300-
SOUTHWEST LOWER MICHIGAN

CITY           SKY/WX    TMP DP  RH WIND       PRES   REMARKS
BATTLE CREEK   FAIR      53  30  41 NW15      30.25R
BENTON HARBOR  FAIR      40  28  62 NW13G24   30.37R WCI  32
BIG RAPIDS     FAIR      47  10  23 N15G21    30.27R
COLDWATER      FAIR      52  32  46 W18G25    30.24R
FREMONT        FAIR      46  12  25 NW22      30.31R
HOLLAND        FAIR      45  29  53 NW13G20   30.32R
GRAND RAPIDS   FAIR      52  26  36 N16       30.27R
IONIA          FAIR      52  14  21 NW16G24   30.24R
KALAMAZOO      FAIR      51  30  44 W15G22    30.28R
LUDINGTON      FAIR      43  24  46 NW8G16    30.35R
MARSHALL       FAIR      55  12  18 NW7       30.23R
MOUNT PLEASANT FAIR      49  20  31 NW13G22   30.23R
MUSKEGON       FAIR      48  20  32 NW16G26   30.34R
SOUTH HAVEN    FAIR      41  30  65 NW13G21   30.35R
$$
MIZ016>042-192300-
NORTHERN LOWER MICHIGAN

CITY           SKY/WX    TMP DP  RH WIND       PRES   REMARKS
ALPENA         FAIR      44  19  36 NW20      30.21R
BEAVER ISLAND  FAIR      40  25  55 NW14G20   30.31S WCI  32
BELLAIRE       FAIR      43  20  39 NW6       30.30S
CADILLAC       FAIR      41  15  34 N14G22    30.27R
CHARLEVOIX     FAIR      38  27  63 N9        30.33R WCI  32
FRANKFORT      FAIR      44  23  43 NW8       30.34R
GAYLORD        FAIR      41  18  39 NW8G21    30.24R
GRAYLING       FAIR      41  18  39 NW18G25   30.24R
HARBOR SPRINGS FAIR      42  18  38 NW10G17   30.28R
HOUGHTON LAKE  FAIR      41  21  44 NW20G25   30.25R
MANISTEE       FAIR      42  29  59 W9        30.35R
OSCODA         FAIR      45  16  31 N13       30.20R
PELLSTON       FAIR      41  20  43 NW21      30.28R
ROGERS CITY    FAIR      42  17  35 NW17G26   30.23R
TRAVERSE CITY  FAIR      43  22  43 NW9       30.31R
$$
MIZ007>008-015-192300-
EASTERN UPPER MICHIGAN

CITY           SKY/WX    TMP DP  RH WIND       PRES   REMARKS
MACKINAC ISLAN FAIR      43  18  36 NW12G20   30.26R
NEWBERRY       FAIR      38  20  47 NW16G23   30.30S WCI  29
S. S. MARIE    FAIR      38  25  59 NW16G29   30.26R WCI  29
MUNISING         N/A     39  25  57 NW13      30.37S WCI  31
$$
MIZ004>006-011>014-085-192300-
CENTRAL UPPER MICHIGAN

CITY           SKY/WX    TMP DP  RH WIND       PRES   REMARKS
MANISTIQUE     FAIR      42  14  32 NW16G25   30.33R
ESCANABA       FAIR      52   3  13 N12G22    30.35R
MENOMINEE      FAIR      47  17  30 SE7       30.36R
SAWYER-GWINN   SUNNY     45  12  26 NE13      30.35S
$$
MIZ001>003-009>011-084-192300-
WESTERN UPPER MICHIGAN

CITY           SKY/WX    TMP DP  RH WIND       PRES   REMARKS
IRON MOUNTAIN  FAIR      52   8  17 N15       30.33S
HOUGHTON       FAIR      43  14  31 W8        30.37F
COPPER HARBOR    N/A     39  25  57 N8        30.36S WCI  33
IRONWOOD       FAIR      48   4  16 NW7       30.41S
$$

ABBREVIATIONS USED IN REMARKS
   TC - TEMPERATURE IN CELSIUS
  WCI - WIND CHILL INDEX
   HX - HEAT INDEX
  VSB - VISIBILITY





USA.gov is the U.S. government's official web portal to all federal, state and local government web resources and services.